timestamp,wind_dir_avg,wind_spd_max_dir,wind_spd_avg,wind_spd_gust,battery_voltage,lat,long
2018-01-23 00:00:00+00:00,306.0,315.0,6.88,8.09,,47.59359,-54.27349
2018-01-23 00:10:00+00:00,298.0,304.0,6.14,7.99,,47.59359,-54.27349
2018-01-23 00:20:00+00:00,303.0,305.0,6.6,8.8,,47.59359,-54.27349
2018-01-23 00:30:00+00:00,300.0,307.0,6.73,8.69,,47.59359,-54.27349
2018-01-23 00:40:00+00:00,299.0,297.0,6.54,8.02,,47.59359,-54.27349
2018-01-23 00:50:00+00:00,309.0,314.0,7.17,8.9,,47.59359,-54.27349
2018-01-23 01:00:00+00:00,312.0,327.0,6.91,10.3,,47.59359,-54.27349
2018-01-23 01:10:00+00:00,309.0,307.0,6.2,9.05,,47.59359,-54.27349
2018-01-23 01:20:00+00:00,314.0,318.0,5.49,7.69,,47.59359,-54.27349
2018-01-23 01:30:00+00:00,296.0,308.0,5.97,7.06,,47.59359,-54.27349
2018-01-23 01:40:00+00:00,303.0,301.0,5.6,7.32,,47.59359,-54.27349
2018-01-23 01:50:00+00:00,302.0,306.0,6.45,8.62,,47.59359,-54.27349
2018-01-23 02:00:00+00:00,293.0,289.0,6.06,7.48,,47.59359,-54.27349
2018-01-23 02:10:00+00:00,287.0,295.0,6.53,7.69,,47.59359,-54.27349
2018-01-23 02:20:00+00:00,271.0,258.0,5.62,7.96,,47.59359,-54.27349
2018-01-23 02:30:00+00:00,282.0,289.0,6.18,7.98,,47.59359,-54.27349
2018-01-23 02:40:00+00:00,277.0,272.0,5.35,6.5,,47.59359,-54.27349
2018-01-23 02:50:00+00:00,279.0,291.0,6.8,8.09,,47.59359,-54.27349
2018-01-23 03:00:00+00:00,273.0,297.0,5.81,7.8,,47.59359,-54.27349
2018-01-23 03:10:00+00:00,300.0,300.0,7.22,8.52,,47.59359,-54.27349
2018-01-23 03:20:00+00:00,292.0,299.0,6.57,8.51,,47.59359,-54.27349
2018-01-23 03:30:00+00:00,287.0,288.0,6.12,7.17,,47.59359,-54.27349
2018-01-23 03:40:00+00:00,293.0,296.0,6.12,7.85,,47.59359,-54.27349
2018-01-23 03:50:00+00:00,288.0,296.0,5.54,6.8,,47.59359,-54.27349
2018-01-23 04:00:00+00:00,290.0,293.0,6.0,7.92,,47.59359,-54.27349
2018-01-23 04:10:00+00:00,288.0,292.0,6.92,8.27,,47.59359,-54.27349
2018-01-23 04:20:00+00:00,280.0,290.0,6.48,7.86,,47.59359,-54.27349
2018-01-23 04:30:00+00:00,274.0,271.0,6.31,7.59,,47.59359,-54.27349
2018-01-23 04:40:00+00:00,281.0,287.0,6.51,7.28,,47.59359,-54.27349
2018-01-23 04:50:00+00:00,271.0,274.0,6.38,7.8,,47.59359,-54.27349
2018-01-23 05:00:00+00:00,280.0,272.0,5.81,6.99,,47.59359,-54.27349
2018-01-23 05:10:00+00:00,270.0,272.0,5.18,6.4,,47.59359,-54.27349
2018-01-23 05:20:00+00:00,283.0,294.0,5.34,6.31,,47.59359,-54.27349
2018-01-23 05:30:00+00:00,260.0,252.0,5.05,5.84,,47.59359,-54.27349
2018-01-23 05:40:00+00:00,270.0,270.0,5.93,7.72,,47.59359,-54.27349
2018-01-23 05:50:00+00:00,278.0,286.0,6.82,8.33,,47.59359,-54.27349
2018-01-23 06:00:00+00:00,274.0,277.0,6.26,7.11,,47.59359,-54.27349
2018-01-23 06:10:00+00:00,261.0,260.0,6.65,8.2,,47.59359,-54.27349
2018-01-23 06:20:00+00:00,282.0,300.0,4.34,5.59,,47.59359,-54.27349
2018-01-23 06:30:00+00:00,270.0,256.0,6.33,7.8,,47.59359,-54.27349
2018-01-23 06:40:00+00:00,278.0,277.0,5.06,6.07,,47.59359,-54.27349
2018-01-23 06:50:00+00:00,274.0,287.0,7.39,8.47,,47.59359,-54.27349
2018-01-23 07:00:00+00:00,256.0,248.0,7.29,9.28,,47.59359,-54.27349
2018-01-23 07:10:00+00:00,272.0,271.0,7.18,8.51,,47.59359,-54.27349
2018-01-23 07:20:00+00:00,263.0,271.0,6.59,7.93,,47.59359,-54.27349
2018-01-23 07:30:00+00:00,282.0,289.0,7.06,8.57,,47.59359,-54.27349
2018-01-23 07:40:00+00:00,261.0,257.0,7.45,9.49,,47.59359,-54.27349
2018-01-23 07:50:00+00:00,274.0,273.0,7.32,8.83,,47.59359,-54.27349
2018-01-23 08:00:00+00:00,262.0,253.0,6.86,8.92,,47.59359,-54.27349
2018-01-23 08:10:00+00:00,264.0,266.0,6.61,8.69,,47.59359,-54.27349
2018-01-23 08:20:00+00:00,239.0,240.0,6.48,7.88,,47.59359,-54.27349
2018-01-23 08:30:00+00:00,258.0,256.0,7.08,9.23,,47.59359,-54.27349
2018-01-23 08:40:00+00:00,253.0,242.0,7.19,8.86,,47.59359,-54.27349
2018-01-23 08:50:00+00:00,254.0,258.0,4.72,6.6,,47.59359,-54.27349
2018-01-23 09:00:00+00:00,266.0,274.0,5.43,6.0,,47.59359,-54.27349
2018-01-23 09:10:00+00:00,268.0,267.0,7.02,8.07,,47.59359,-54.27349
2018-01-23 09:20:00+00:00,266.0,273.0,6.79,7.76,,47.59359,-54.27349
2018-01-23 09:30:00+00:00,268.0,265.0,5.28,6.78,,47.59359,-54.27349
2018-01-23 09:40:00+00:00,260.0,255.0,5.18,6.42,,47.59359,-54.27349
2018-01-23 09:50:00+00:00,272.0,266.0,3.87,5.04,,47.59359,-54.27349
2018-01-23 10:00:00+00:00,284.0,286.0,3.98,4.77,,47.59359,-54.27349
2018-01-23 10:10:00+00:00,287.0,285.0,3.42,4.05,,47.59359,-54.27349
2018-01-23 10:20:00+00:00,258.0,257.0,4.37,5.18,,47.59359,-54.27349
2018-01-23 10:30:00+00:00,273.0,285.0,4.84,5.94,,47.59359,-54.27349
2018-01-23 10:40:00+00:00,260.0,259.0,4.46,5.13,,47.59359,-54.27349
2018-01-23 10:50:00+00:00,250.0,253.0,4.47,5.29,,47.59359,-54.27349
2018-01-23 11:00:00+00:00,256.0,254.0,5.64,7.12,,47.59359,-54.27349
2018-01-23 11:10:00+00:00,272.0,270.0,6.97,8.88,,47.59359,-54.27349
2018-01-23 11:20:00+00:00,276.0,271.0,6.53,8.09,,47.59359,-54.27349
2018-01-23 11:30:00+00:00,273.0,277.0,5.89,7.32,,47.59359,-54.27349
2018-01-23 11:40:00+00:00,321.0,311.0,3.44,4.61,,47.59359,-54.27349
2018-01-23 11:50:00+00:00,315.0,318.0,3.95,5.21,,47.59359,-54.27349
2018-01-23 12:00:00+00:00,293.0,306.0,2.47,3.63,,47.59359,-54.27349
2018-01-23 12:10:00+00:00,314.0,319.0,3.95,4.67,,47.59359,-54.27349
2018-01-23 12:20:00+00:00,280.0,291.0,5.66,6.93,,47.59359,-54.27349
2018-01-23 12:30:00+00:00,299.0,289.0,5.77,7.62,,47.59359,-54.27349
2018-01-23 12:40:00+00:00,278.0,276.0,4.85,7.5,,47.59359,-54.27349
2018-01-23 12:50:00+00:00,275.0,273.0,5.53,6.15,,47.59359,-54.27349
2018-01-23 13:00:00+00:00,297.0,317.0,5.2,6.78,,47.59359,-54.27349
2018-01-23 13:10:00+00:00,270.0,271.0,4.27,6.39,,47.59359,-54.27349
2018-01-23 13:20:00+00:00,267.0,266.0,4.05,6.11,,47.59359,-54.27349
2018-01-23 13:30:00+00:00,257.0,263.0,4.29,5.46,,47.59359,-54.27349
2018-01-23 13:40:00+00:00,301.0,307.0,4.93,5.93,,47.59359,-54.27349
2018-01-23 13:50:00+00:00,319.0,326.0,2.31,3.51,,47.59359,-54.27349
2018-01-23 14:00:00+00:00,298.0,300.0,3.75,4.95,,47.59359,-54.27349
2018-01-23 14:10:00+00:00,297.0,303.0,3.21,4.06,,47.59359,-54.27349
2018-01-23 14:20:00+00:00,301.0,300.0,4.31,5.02,,47.59359,-54.27349
2018-01-23 14:30:00+00:00,273.0,274.0,5.08,6.61,,47.59359,-54.27349
2018-01-23 14:40:00+00:00,278.0,273.0,4.89,6.5,,47.59359,-54.27349
2018-01-23 14:50:00+00:00,297.0,300.0,5.69,6.46,,47.59359,-54.27349
2018-01-23 15:00:00+00:00,261.0,281.0,4.21,5.64,,47.59359,-54.27349
2018-01-23 15:10:00+00:00,306.0,297.0,4.75,5.86,,47.59359,-54.27349
2018-01-23 15:20:00+00:00,292.0,296.0,5.28,6.11,,47.59359,-54.27349
2018-01-23 15:30:00+00:00,302.0,299.0,3.53,4.07,,47.59359,-54.27349
2018-01-23 15:40:00+00:00,281.0,280.0,2.55,2.97,,47.59359,-54.27349
2018-01-23 15:50:00+00:00,298.0,298.0,3.38,3.98,,47.59359,-54.27349
2018-01-23 16:00:00+00:00,238.0,240.0,3.02,3.71,,47.59359,-54.27349
2018-01-23 16:10:00+00:00,229.0,231.0,4.0,4.74,,47.59359,-54.27349
2018-01-23 16:20:00+00:00,238.0,244.0,3.59,4.24,,47.59359,-54.27349
2018-01-23 16:30:00+00:00,228.0,235.0,3.28,4.31,,47.59359,-54.27349
2018-01-23 16:40:00+00:00,229.0,226.0,3.97,4.86,,47.59359,-54.27349
2018-01-23 16:50:00+00:00,208.0,208.0,4.22,4.79,,47.59359,-54.27349
2018-01-23 17:00:00+00:00,226.0,226.0,3.84,4.93,,47.59359,-54.27349
2018-01-23 17:10:00+00:00,252.0,248.0,3.51,4.16,,47.59359,-54.27349
2018-01-23 17:20:00+00:00,262.0,263.0,3.84,4.66,,47.59359,-54.27349
2018-01-23 17:30:00+00:00,268.0,270.0,4.36,5.03,,47.59359,-54.27349
2018-01-23 17:40:00+00:00,236.0,235.0,4.17,5.28,,47.59359,-54.27349
2018-01-23 17:50:00+00:00,239.0,245.0,3.84,4.29,,47.59359,-54.27349
2018-01-23 18:00:00+00:00,247.0,254.0,4.66,5.62,,47.59359,-54.27349
2018-01-23 18:10:00+00:00,229.0,228.0,4.87,5.61,,47.59359,-54.27349
2018-01-23 18:20:00+00:00,237.0,236.0,3.87,5.03,,47.59359,-54.27349
2018-01-23 18:30:00+00:00,229.0,236.0,3.77,4.47,,47.59359,-54.27349
2018-01-23 18:40:00+00:00,227.0,218.0,5.46,6.1,,47.59359,-54.27349
2018-01-23 18:50:00+00:00,234.0,235.0,4.85,5.77,,47.59359,-54.27349
2018-01-23 19:00:00+00:00,209.0,213.0,6.42,7.07,,47.59359,-54.27349
2018-01-23 19:10:00+00:00,234.0,233.0,6.66,7.59,,47.59359,-54.27349
2018-01-23 19:20:00+00:00,233.0,232.0,6.69,7.48,,47.59359,-54.27349
2018-01-23 19:30:00+00:00,237.0,234.0,5.99,7.2,,47.59359,-54.27349
2018-01-23 19:40:00+00:00,252.0,252.0,7.11,7.8,,47.59359,-54.27349
2018-01-23 19:50:00+00:00,253.0,242.0,6.99,7.87,,47.59359,-54.27349
2018-01-23 20:00:00+00:00,252.0,249.0,6.97,7.55,,47.59359,-54.27349
2018-01-23 20:10:00+00:00,246.0,242.0,5.93,6.75,,47.59359,-54.27349
2018-01-23 20:20:00+00:00,250.0,252.0,6.11,7.15,,47.59359,-54.27349
2018-01-23 20:30:00+00:00,254.0,254.0,6.44,6.87,,47.59359,-54.27349
2018-01-23 20:40:00+00:00,246.0,248.0,5.16,6.1,,47.59359,-54.27349
2018-01-23 20:50:00+00:00,252.0,254.0,5.75,6.35,,47.59359,-54.27349
2018-01-23 21:00:00+00:00,226.0,231.0,3.86,4.3,,47.59359,-54.27349
2018-01-23 21:10:00+00:00,233.0,238.0,4.92,5.69,,47.59359,-54.27349
2018-01-23 21:20:00+00:00,232.0,227.0,5.08,5.97,,47.59359,-54.27349
2018-01-23 21:30:00+00:00,253.0,252.0,5.76,6.49,,47.59359,-54.27349
2018-01-23 21:40:00+00:00,254.0,255.0,6.45,7.28,,47.59359,-54.27349
2018-01-23 21:50:00+00:00,253.0,249.0,5.79,7.1,,47.59359,-54.27349
2018-01-23 22:00:00+00:00,244.0,245.0,5.22,6.11,,47.59359,-54.27349
2018-01-23 22:10:00+00:00,235.0,235.0,5.58,6.58,,47.59359,-54.27349
2018-01-23 22:20:00+00:00,243.0,242.0,5.58,6.46,,47.59359,-54.27349
2018-01-23 22:30:00+00:00,238.0,242.0,5.28,5.92,,47.59359,-54.27349
2018-01-23 22:40:00+00:00,239.0,254.0,4.05,5.25,,47.59359,-54.27349
2018-01-23 22:50:00+00:00,244.0,252.0,3.53,4.27,,47.59359,-54.27349
2018-01-23 23:00:00+00:00,242.0,239.0,3.76,4.28,,47.59359,-54.27349
2018-01-23 23:10:00+00:00,234.0,238.0,4.56,5.48,,47.59359,-54.27349
2018-01-23 23:20:00+00:00,232.0,233.0,5.38,6.09,,47.59359,-54.27349
2018-01-23 23:30:00+00:00,243.0,244.0,5.24,6.39,,47.59359,-54.27349
2018-01-23 23:40:00+00:00,231.0,230.0,4.44,5.18,,47.59359,-54.27349
2018-01-23 23:50:00+00:00,237.0,242.0,5.01,5.72,,47.59359,-54.27349
